COSMOS 2251 DEB, 39546

Orbit data source: Space-Track

COSMOS 2251 DEB, 39546 is space debris in LEO originally from a launch on Wed, 16 Jun 1993 UTC launched from the Plesetsk Missile And Space Complex (PKMTR). The debris from Iridium 33, an American commercial communications satellite, has been tracked extensively since its accidental collision with the defunct Russian satellite Cosmos 2251 in 2009. This event, occurring at high speed in low Earth orbit (LEO), generated thousands of pieces of space debris, significantly increasing the risk of further collisions. The Iridium 33 debris cloud has impacted space traffic management and orbital debris mitigation strategies, making it a subject of ongoing study in space situational awareness.

Loading next visibility...
Identifier
39546, 1993-036BUC
Orbit
LEO
Country
Flag of CISCIS
Related business
Manufacturer
Unknown
Mission
Spacecraft
Bus & Motor
Unknown
Mass
Unknown
Launch date (UTC)
1993-06-16 (33 years ago)
Launch vehicle
Unknown
Launch site
Plesetsk Missile And Space Complex (PKMTR)
Object type
Payload
Rocket body
Debris
Shape & HBR
Unknown shape, 0.1 m
Radar Cross Section
Small (<0.1 m²)

Expand to show TLE details & history
Last TLE update: 1 day ago

TLE from 1 day ago
0 COSMOS 2251 DEB
1 39546U 93036BUC 26119.02733617  .00010855  00000-0  94787-3 0  9993
2 39546  73.9982 219.5748 0041030 343.0102  16.9706 14.96227842664879
Epoch: 2026-04-29T00:39Z
TLE epoch observation values (Epoch: 2026-04-29T00:39:21.845Z)
Latitude
0.00006°
Longitude
-7.2604°
Altitude
553.951 km
Speed
7.6 km/s
True Right ascension
14h 38m 17s
True Declination
0° 00' 00"
Sunlit
Object was in full shadow at epoch
Visualization orbit readout
Latitude
Unknown
Longitude
Unknown
Altitude
Unknown
Speed
Unknown
Apparent Right ascension
Unknown
Apparent Declination
Unknown
Sunlit
N/A
Visualization observer readout
Local Sidereal Time
19:41:24
Azimuth
Unknown
Elevation
Unknown
Doppler factor
Unknown
Orbital elements
Apogee altitude
604.659 km
Perigee altitude
547.592 km
Semi-major axis
6,954.262 km
Eccentricity
0.0041
Inclination
73.9982°
RAAN
219.5748°
Arg. of periapsis
343.0102°
True anomaly
17.10851°
Mean anomaly
16.9706°
Eccentric anomaly
17.03949°
Mean motion
3.74254 °/min
Orbital period
96.19 mins
BSTAR
0.00094787
Loading maneuver chart data...
Computing Atmospheric mass density...

Documentation

Showing up to 5 results
|